| time (UTC) | temp F | wind direction | speed MPH | gust MPH | rain 1hr in | rain 24hr in | rain mn in | humidity % | barometer mb |
| 20260831142522 | 77 | 213 | 6.0 | 16.0 | 0.00 | 0.00 | 0.00 | 72 | 1013.1 |
| 20260831142020 | 77 | 183 | 7.0 | 15.0 | 0.00 | 0.00 | 0.00 | 73 | 1013.0 |
| 20260831141539 | 76 | 207 | 8.0 | 15.0 | 0.00 | 0.00 | 0.00 | 73 | 1013.1 |
| 20260831141020 | 76 | 205 | 6.0 | 15.0 | 0.00 | 0.00 | 0.00 | 74 | 1013.2 |
| 20260831140519 | 76 | 140 | 7.0 | 15.0 | 0.00 | 0.00 | 0.00 | 73 | 1013.2 |
| 20260831140038 | 76 | 252 | 4.0 | 14.0 | 0.00 | 0.00 | 0.00 | 74 | 1013.1 |
| 20260831135524 | 76 | 203 | 4.0 | 12.0 | 0.00 | 0.00 | 0.00 | 74 | 1013.2 |
| 20260831135025 | 76 | 188 | 6.0 | 12.0 | 0.00 | 0.00 | 0.00 | 74 | 1013.1 |
| 20260831134545 | 76 | 244 | 5.0 | 15.0 | 0.00 | 0.00 | 0.00 | 75 | 1013.1 |
| 20260831134019 | 76 | 190 | 7.0 | 15.0 | 0.00 | 0.00 | 0.00 | 74 | 1013.1 |
| 20260831133519 | 76 | 165 | 5.0 | 12.0 | 0.00 | 0.00 | 0.00 | 74 | 1013.0 |
| 20260831133045 | 76 | 154 | 5.0 | 12.0 | 0.00 | 0.00 | 0.00 | 75 | 1013.2 |
| 20260831132522 | 75 | 213 | 5.0 | 11.0 | 0.00 | 0.00 | 0.00 | 76 | 1013.1 |
| 20260831132020 | 75 | 163 | 5.0 | 10.0 | 0.00 | 0.00 | 0.00 | 76 | 1012.9 |
| 20260831131543 | 75 | 202 | 3.0 | 10.0 | 0.00 | 0.00 | 0.00 | 77 | 1012.9 |
| 20260831131018 | 74 | 225 | 4.0 | 11.0 | 0.00 | 0.00 | 0.00 | 77 | 1013.1 |
| 20260831130518 | 74 | 218 | 6.0 | 13.0 | 0.00 | 0.00 | 0.00 | 77 | 1013.0 |
| 20260831130041 | 74 | 178 | 6.0 | 15.0 | 0.00 | 0.00 | 0.00 | 77 | 1013.1 |
| 20260831125555 | 74 | 178 | 7.0 | 16.0 | 0.00 | 0.00 | 0.00 | 77 | 1013.0 |
| 20260831125015 | 74 | 246 | 6.0 | 16.0 | 0.00 | 0.00 | 0.00 | 77 | 1013.0 |
| 20260831124552 | 74 | 196 | 5.0 | 15.0 | 0.00 | 0.00 | 0.00 | 78 | 1013.0 |
| 20260831124022 | 74 | 217 | 7.0 | 15.0 | 0.00 | 0.00 | 0.00 | 78 | 1013.0 |
| 20260831123522 | 74 | 200 | 8.0 | 14.0 | 0.00 | 0.00 | 0.00 | 78 | 1012.8 |
| 20260831123039 | 74 | 213 | 5.0 | 15.0 | 0.00 | 0.00 | 0.00 | 79 | 1012.8 |
| 20260831122525 | 73 | 227 | 7.0 | 15.0 | 0.00 | 0.00 | 0.00 | 79 | 1012.8 |
| 20260831122020 | 73 | 204 | 5.0 | 12.0 | 0.00 | 0.00 | 0.00 | 80 | 1012.8 |
| 20260831121537 | 73 | 224 | 4.0 | 12.0 | 0.00 | 0.00 | 0.00 | 80 | 1012.8 |
| 20260831121019 | 73 | 142 | 6.0 | 12.0 | 0.00 | 0.00 | 0.00 | 80 | 1012.9 |
| 20260831120521 | 73 | 227 | 5.0 | 12.0 | 0.00 | 0.00 | 0.00 | 80 | 1012.9 |
| 20260831120044 | 73 | 228 | 6.0 | 13.0 | 0.00 | 0.00 | 0.00 | 81 | 1012.8 |
| 20260831115515 | 73 | 194 | 6.0 | 13.0 | 0.00 | 0.00 | 0.00 | 81 | 1012.9 |
| 20260831115015 | 72 | 180 | 5.0 | 12.0 | 0.00 | 0.00 | 0.00 | 82 | 1012.8 |
| 20260831114548 | 72 | 166 | 4.0 | 11.0 | 0.00 | 0.00 | 0.00 | 83 | 1012.8 |
| 20260831114021 | 72 | 253 | 3.0 | 11.0 | 0.00 | 0.00 | 0.00 | 84 | 1012.8 |
| 20260831113518 | 71 | 210 | 2.0 | 9.0 | 0.00 | 0.00 | 0.00 | 85 | 1012.9 |
| 20260831113038 | 71 | 176 | 4.0 | 9.0 | 0.00 | 0.00 | 0.00 | 86 | 1012.9 |
| 20260831112522 | 71 | 165 | 4.0 | 10.0 | 0.00 | 0.00 | 0.00 | 86 | 1012.9 |
| 20260831112019 | 71 | 164 | 5.0 | 10.0 | 0.00 | 0.00 | 0.00 | 86 | 1013.0 |
| 20260831111535 | 71 | 161 | 4.0 | 8.0 | 0.00 | 0.00 | 0.00 | 86 | 1013.0 |
| 20260831111016 | 71 | 168 | 3.0 | 7.0 | 0.00 | 0.00 | 0.00 | 86 | 1013.2 |
| 20260831110518 | 71 | 157 | 2.0 | 6.0 | 0.00 | 0.00 | 0.00 | 86 | 1013.2 |
| 20260831110042 | 71 | 168 | 2.0 | 6.0 | 0.00 | 0.00 | 0.00 | 86 | 1013.3 |
| 20260831105522 | 71 | 148 | 2.0 | 5.0 | 0.00 | 0.00 | 0.00 | 86 | 1013.3 |
| 20260831105023 | 71 | 142 | 2.0 | 5.0 | 0.00 | 0.00 | 0.00 | 85 | 1013.5 |
| 20260831104547 | 71 | 165 | 3.0 | 7.0 | 0.00 | 0.00 | 0.00 | 85 | 1013.6 |
| 20260831104019 | 71 | 150 | 3.0 | 7.0 | 0.00 | 0.00 | 0.00 | 85 | 1013.7 |
| 20260831103517 | 71 | 167 | 1.0 | 8.0 | 0.00 | 0.00 | 0.00 | 86 | 1013.7 |
| 20260831103038 | 71 | 0 | 2.0 | 8.0 | 0.00 | 0.00 | 0.00 | 85 | 1013.7 |
| 20260831102518 | 71 | 175 | 3.0 | 9.0 | 0.00 | 0.00 | 0.00 | 85 | 1013.7 |
| 20260831102016 | 71 | 181 | 4.0 | 9.0 | 0.00 | 0.00 | 0.00 | 85 | 1013.7 |
| 20260831101539 | 72 | 138 | 3.0 | 7.0 | 0.00 | 0.00 | 0.00 | 85 | 1013.8 |
| 20260831101018 | 72 | 155 | 4.0 | 7.0 | 0.00 | 0.00 | 0.00 | 84 | 1013.7 |
| 20260831100517 | 72 | 181 | 2.0 | 7.0 | 0.00 | 0.00 | 0.00 | 83 | 1014.0 |
| 20260831100043 | 72 | 166 | 2.0 | 7.0 | 0.00 | 0.00 | 0.00 | 83 | 1013.9 |
| 20260831095518 | 72 | 149 | 5.0 | 7.0 | 0.00 | 0.04 | 0.00 | 82 | 1013.7 |
| 20260831095024 | 72 | 173 | 3.0 | 6.0 | 0.00 | 0.04 | 0.00 | 82 | 1013.8 |
| 20260831094540 | 72 | 211 | 2.0 | 6.0 | 0.00 | 0.04 | 0.00 | 82 | 1014.1 |
| 20260831094021 | 72 | 136 | 3.0 | 5.0 | 0.00 | 0.04 | 0.00 | 82 | 1013.8 |
| 20260831093524 | 72 | 145 | 1.0 | 4.0 | 0.00 | 0.04 | 0.00 | 83 | 1013.9 |
| 20260831093046 | 72 | 164 | 2.0 | 4.0 | 0.00 | 0.04 | 0.00 | 82 | 1013.9 |
| 20260831092518 | 72 | 144 | 1.0 | 4.0 | 0.00 | 0.04 | 0.00 | 83 | 1013.8 |
| 20260831092020 | 72 | 158 | 2.0 | 4.0 | 0.00 | 0.04 | 0.00 | 83 | 1013.9 |
| 20260831091538 | 72 | 142 | 2.0 | 4.0 | 0.00 | 0.04 | 0.00 | 83 | 1013.9 |
| 20260831091025 | 72 | 155 | 2.0 | 3.0 | 0.00 | 0.04 | 0.00 | 83 | 1013.9 |
| 20260831090517 | 71 | 127 | 1.0 | 4.0 | 0.00 | 0.04 | 0.00 | 84 | 1013.9 |
| 20260831090040 | 71 | 161 | 2.0 | 4.0 | 0.00 | 0.04 | 0.00 | 84 | 1014.0 |
| 20260831085521 | 71 | 150 | 2.0 | 3.0 | 0.00 | 0.04 | 0.00 | 84 | 1014.1 |
| 20260831085021 | 71 | 165 | 2.0 | 4.0 | 0.00 | 0.04 | 0.00 | 84 | 1014.1 |
| 20260831084540 | 71 | 144 | 2.0 | 4.0 | 0.00 | 0.04 | 0.00 | 85 | 1014.1 |
| 20260831084016 | 71 | 171 | 1.0 | 2.0 | 0.00 | 0.04 | 0.00 | 85 | 1014.2 |
| 20260831083523 | 71 | 153 | 1.0 | 4.0 | 0.00 | 0.04 | 0.00 | 85 | 1014.2 |
| 20260831083046 | 71 | 162 | 1.0 | 4.0 | 0.00 | 0.04 | 0.00 | 86 | 1014.0 |
| 20260831082523 | 70 | 161 | 2.0 | 3.0 | 0.00 | 0.04 | 0.00 | 87 | 1014.0 |
| 20260831082019 | 70 | 194 | 1.0 | 3.0 | 0.00 | 0.04 | 0.00 | 88 | 1014.0 |
| 20260831081539 | 70 | 171 | 1.0 | 3.0 | 0.00 | 0.04 | 0.00 | 88 | 1014.0 |
| 20260831081022 | 70 | 148 | 1.0 | 2.0 | 0.00 | 0.04 | 0.00 | 88 | 1014.0 |
| 20260831080519 | 70 | 150 | 1.0 | 4.0 | 0.00 | 0.04 | 0.00 | 88 | 1014.0 |
| 20260831080042 | 70 | 145 | 1.0 | 4.0 | 0.00 | 0.04 | 0.00 | 88 | 1014.0 |
| 20260831075519 | 69 | 165 | 1.0 | 4.0 | 0.00 | 0.04 | 0.00 | 89 | 1014.0 |
| 20260831075019 | 69 | 143 | 1.0 | 3.0 | 0.00 | 0.04 | 0.00 | 89 | 1013.9 |
| 20260831074544 | 69 | 172 | 2.0 | 3.0 | 0.00 | 0.04 | 0.00 | 89 | 1014.1 |
| 20260831074023 | 69 | 167 | 1.0 | 2.0 | 0.00 | 0.04 | 0.00 | 89 | 1014.1 |
| 20260831073524 | 69 | 141 | 1.0 | 3.0 | 0.00 | 0.04 | 0.00 | 89 | 1014.1 |
| 20260831073054 | 69 | 142 | 2.0 | 3.0 | 0.00 | 0.04 | 0.00 | 90 | 1014.2 |
| 20260831072524 | 69 | 155 | 0.0 | 2.0 | 0.00 | 0.04 | 0.00 | 89 | 1014.4 |
| 20260831072019 | 69 | 144 | 1.0 | 2.0 | 0.00 | 0.04 | 0.00 | 89 | 1014.5 |
| 20260831071546 | 69 | 165 | 1.0 | 2.0 | 0.00 | 0.04 | 0.00 | 89 | 1014.6 |
| 20260831071017 | 69 | 170 | 1.0 | 2.0 | 0.00 | 0.04 | 0.00 | 89 | 1014.7 |
| 20260831070519 | 69 | 246 | 1.0 | 2.0 | 0.00 | 0.04 | 0.00 | 89 | 1014.9 |
| 20260831070051 | 69 | 0 | 0.0 | 2.0 | 0.00 | 0.04 | 0.00 | 89 | 1014.9 |
| 20260831065520 | 70 | 159 | 1.0 | 4.0 | 0.00 | 0.04 | 0.00 | 88 | 1015.0 |
| 20260831065021 | 70 | 110 | 2.0 | 4.0 | 0.00 | 0.04 | 0.00 | 89 | 1015.2 |
| 20260831064541 | 70 | 115 | 1.0 | 3.0 | 0.00 | 0.04 | 0.00 | 88 | 1015.2 |
| 20260831064018 | 70 | 141 | 1.0 | 2.0 | 0.00 | 0.04 | 0.00 | 89 | 1015.3 |
| 20260831063519 | 70 | 210 | 0.0 | 2.0 | 0.00 | 0.04 | 0.00 | 89 | 1015.4 |
| 20260831063040 | 69 | 210 | 1.0 | 2.0 | 0.00 | 0.04 | 0.00 | 89 | 1015.4 |
| 20260831062521 | 70 | 0 | 0.0 | 2.0 | 0.00 | 0.04 | 0.00 | 88 | 1015.3 |
| 20260831062022 | 70 | 0 | 0.0 | 3.0 | 0.00 | 0.04 | 0.00 | 88 | 1015.5 |
| 20260831061539 | 70 | 161 | 1.0 | 3.0 | 0.00 | 0.04 | 0.00 | 88 | 1015.4 |
| 20260831061019 | 70 | 205 | 0.0 | 2.0 | 0.00 | 0.04 | 0.00 | 88 | 1015.5 |
| 20260831060523 | 70 | 205 | 0.0 | 2.0 | 0.00 | 0.04 | 0.00 | 87 | 1015.5 |
| 20260831060046 | 70 | 205 | 1.0 | 2.0 | 0.00 | 0.04 | 0.00 | 87 | 1015.5 |
| 20260831055519 | 71 | 0 | 0.0 | 2.0 | 0.00 | 0.04 | 0.00 | 87 | 1015.5 |
| 20260831055025 | 71 | 198 | 1.0 | 2.0 | 0.00 | 0.04 | 0.00 | 87 | 1015.7 |
| 20260831054540 | 71 | 225 | 0.0 | 3.0 | 0.00 | 0.04 | 0.00 | 86 | 1015.5 |
| 20260831054023 | 71 | 0 | 0.0 | 5.0 | 0.00 | 0.04 | 0.00 | 86 | 1015.5 |
| 20260831053526 | 71 | 346 | 2.0 | 5.0 | 0.00 | 0.04 | 0.00 | 86 | 1015.5 |
| 20260831053041 | 71 | 323 | 2.0 | 5.0 | 0.00 | 0.04 | 0.00 | 86 | 1015.5 |
| 20260831052520 | 71 | 334 | 3.0 | 5.0 | 0.00 | 0.04 | 0.00 | 86 | 1015.4 |
| 20260831052017 | 71 | 336 | 3.0 | 5.0 | 0.00 | 0.04 | 0.00 | 87 | 1015.4 |
| 20260831051539 | 71 | 336 | 2.0 | 5.0 | 0.00 | 0.04 | 0.00 | 86 | 1015.5 |
| 20260831051022 | 71 | 24 | 2.0 | 3.0 | 0.00 | 0.04 | 0.00 | 86 | 1015.5 |
| 20260831050520 | 71 | 352 | 1.0 | 3.0 | 0.00 | 0.04 | 0.00 | 86 | 1015.5 |
| 20260831050057 | 71 | 243 | 1.0 | 5.0 | 0.00 | 0.04 | 0.00 | 85 | 1015.5 |
| 20260831045519 | 71 | 234 | 2.0 | 5.0 | 0.00 | 0.04 | 0.04 | 85 | 1015.5 |
| 20260831045025 | 71 | 222 | 2.0 | 4.0 | 0.00 | 0.04 | 0.04 | 85 | 1015.4 |
| 20260831044553 | 71 | 318 | 1.0 | 2.0 | 0.00 | 0.04 | 0.04 | 85 | 1015.4 |
| 20260831044020 | 71 | 284 | 0.0 | 1.0 | 0.00 | 0.04 | 0.04 | 85 | 1015.3 |
| 20260831043521 | 71 | 0 | 0.0 | 2.0 | 0.00 | 0.04 | 0.04 | 85 | 1015.2 |
| 20260831043043 | 71 | 284 | 1.0 | 3.0 | 0.00 | 0.04 | 0.04 | 85 | 1015.1 |
| 20260831042521 | 71 | 282 | 1.0 | 3.0 | 0.00 | 0.04 | 0.04 | 85 | 1015.0 |
| 20260831042021 | 72 | 292 | 0.0 | 2.0 | 0.00 | 0.04 | 0.04 | 84 | 1015.0 |
| 20260831041538 | 72 | 262 | 0.0 | 2.0 | 0.00 | 0.04 | 0.04 | 84 | 1014.7 |
| 20260831041021 | 72 | 277 | 0.0 | 4.0 | 0.00 | 0.04 | 0.04 | 84 | 1014.7 |
| 20260831040521 | 72 | 247 | 0.0 | 4.0 | 0.00 | 0.04 | 0.04 | 84 | 1014.5 |
| 20260831040038 | 72 | 0 | 1.0 | 5.0 | 0.00 | 0.04 | 0.04 | 84 | 1014.6 |
| 20260831035520 | 72 | 187 | 2.0 | 6.0 | 0.00 | 0.04 | 0.04 | 84 | 1014.6 |
| 20260831035020 | 72 | 197 | 2.0 | 8.0 | 0.00 | 0.04 | 0.04 | 84 | 1014.8 |
| 20260831034541 | 72 | 225 | 3.0 | 9.0 | 0.00 | 0.04 | 0.04 | 84 | 1014.7 |
| 20260831034018 | 72 | 242 | 4.0 | 9.0 | 0.00 | 0.04 | 0.04 | 84 | 1014.7 |
| 20260831033518 | 72 | 245 | 3.0 | 7.0 | 0.00 | 0.04 | 0.04 | 84 | 1014.6 |
| 20260831033037 | 72 | 226 | 3.0 | 8.0 | 0.00 | 0.04 | 0.04 | 84 | 1014.7 |
| 20260831032523 | 72 | 224 | 4.0 | 8.0 | 0.00 | 0.04 | 0.04 | 84 | 1014.6 |
| 20260831032021 | 72 | 218 | 4.0 | 8.0 | 0.00 | 0.04 | 0.04 | 84 | 1014.6 |
| 20260831031538 | 72 | 217 | 3.0 | 8.0 | 0.00 | 0.04 | 0.04 | 84 | 1014.6 |
| 20260831031016 | 72 | 243 | 2.0 | 8.0 | 0.00 | 0.04 | 0.04 | 84 | 1014.5 |
| 20260831030518 | 72 | 190 | 2.0 | 8.0 | 0.00 | 0.04 | 0.04 | 84 | 1014.3 |
| 20260831030040 | 72 | 249 | 4.0 | 9.0 | 0.00 | 0.04 | 0.04 | 84 | 1014.4 |
| 20260831025521 | 72 | 229 | 4.0 | 11.0 | 0.00 | 0.04 | 0.04 | 84 | 1014.6 |
| 20260831025022 | 72 | 235 | 5.0 | 11.0 | 0.00 | 0.04 | 0.04 | 84 | 1014.5 |
| 20260831024557 | 72 | 205 | 5.0 | 12.0 | 0.00 | 0.04 | 0.04 | 84 | 1014.5 |
| 20260831024020 | 72 | 226 | 6.0 | 12.0 | 0.00 | 0.04 | 0.04 | 84 | 1014.4 |
| 20260831023520 | 72 | 273 | 4.0 | 12.0 | 0.00 | 0.04 | 0.04 | 84 | 1014.4 |
| 20260831023035 | 72 | 302 | 5.0 | 12.0 | 0.00 | 0.04 | 0.04 | 84 | 1014.6 |
| 20260831022518 | 72 | 232 | 4.0 | 12.0 | 0.00 | 0.04 | 0.04 | 84 | 1014.6 |
| 20260831022019 | 72 | 210 | 6.0 | 12.0 | 0.00 | 0.04 | 0.04 | 84 | 1014.5 |
| 20260831021538 | 72 | 214 | 5.0 | 11.0 | 0.00 | 0.04 | 0.04 | 84 | 1014.3 |
| 20260831021018 | 72 | 223 | 4.0 | 12.0 | 0.00 | 0.04 | 0.04 | 84 | 1014.6 |
| 20260831020516 | 72 | 212 | 6.0 | 12.0 | 0.00 | 0.04 | 0.04 | 84 | 1014.6 |
| 20260831015517 | 72 | 200 | 4.0 | 10.0 | 0.00 | 0.04 | 0.04 | 84 | 1014.5 |
| 20260831015020 | 72 | 201 | 4.0 | 11.0 | 0.00 | 0.04 | 0.04 | 84 | 1014.5 |
| 20260831014554 | 72 | 205 | 6.0 | 11.0 | 0.00 | 0.04 | 0.04 | 85 | 1014.5 |
| 20260831014020 | 72 | 243 | 4.0 | 9.0 | 0.00 | 0.04 | 0.04 | 85 | 1014.6 |
| 20260831013523 | 72 | 226 | 4.0 | 9.0 | 0.00 | 0.04 | 0.04 | 84 | 1014.5 |
| 20260831013037 | 72 | 207 | 3.0 | 6.0 | 0.00 | 0.04 | 0.04 | 84 | 1014.4 |
| 20260831012518 | 72 | 220 | 2.0 | 6.0 | 0.00 | 0.04 | 0.04 | 84 | 1014.4 |
| 20260831012019 | 72 | 258 | 3.0 | 6.0 | 0.00 | 0.04 | 0.04 | 84 | 1014.4 |
| 20260831011538 | 73 | 205 | 2.0 | 7.0 | 0.00 | 0.04 | 0.04 | 83 | 1014.2 |
| 20260831011021 | 73 | 244 | 3.0 | 7.0 | 0.00 | 0.04 | 0.04 | 83 | 1014.4 |
| 20260831010519 | 73 | 227 | 3.0 | 7.0 | 0.00 | 0.04 | 0.04 | 83 | 1014.3 |
| 20260831010046 | 73 | 229 | 3.0 | 6.0 | 0.00 | 0.04 | 0.04 | 82 | 1014.3 |
| 20260831005517 | 73 | 227 | 3.0 | 6.0 | 0.00 | 0.04 | 0.04 | 82 | 1014.3 |
| 20260831005023 | 73 | 241 | 2.0 | 4.0 | 0.00 | 0.04 | 0.04 | 82 | 1014.2 |
| 20260831004534 | 73 | 229 | 1.0 | 8.0 | 0.00 | 0.04 | 0.04 | 81 | 1014.0 |
| 20260831004022 | 74 | 215 | 3.0 | 9.0 | 0.00 | 0.04 | 0.04 | 81 | 1014.1 |
| 20260831003526 | 74 | 225 | 3.0 | 9.0 | 0.00 | 0.04 | 0.04 | 81 | 1014.1 |
| 20260831003044 | 74 | 242 | 4.0 | 10.0 | 0.00 | 0.04 | 0.04 | 80 | 1014.2 |
| 20260831002520 | 74 | 229 | 3.0 | 11.0 | 0.00 | 0.04 | 0.04 | 80 | 1014.0 |
| 20260831002017 | 74 | 247 | 4.0 | 11.0 | 0.00 | 0.04 | 0.04 | 80 | 1014.0 |
| 20260831001551 | 74 | 184 | 2.0 | 9.0 | 0.00 | 0.04 | 0.04 | 80 | 1013.9 |
| 20260831001020 | 74 | 226 | 3.0 | 10.0 | 0.00 | 0.04 | 0.04 | 80 | 1013.9 |
| 20260831000521 | 74 | 238 | 5.0 | 10.0 | 0.00 | 0.04 | 0.04 | 79 | 1013.8 |
| 20260831000041 | 75 | 223 | 2.0 | 7.0 | 0.00 | 0.04 | 0.04 | 79 | 1014.0 |
| 20260830235524 | 75 | 229 | 2.0 | 9.0 | 0.00 | 0.04 | 0.04 | 79 | 1013.9 |
| 20260830235027 | 75 | 192 | 4.0 | 10.0 | 0.00 | 0.04 | 0.04 | 78 | 1013.8 |
| 20260830234603 | 75 | 241 | 4.0 | 11.0 | 0.00 | 0.04 | 0.04 | 78 | 1013.9 |
| 20260830234019 | 75 | 237 | 3.0 | 14.0 | 0.00 | 0.04 | 0.04 | 78 | 1014.0 |
| 20260830233525 | 75 | 219 | 4.0 | 14.0 | 0.00 | 0.04 | 0.04 | 77 | 1014.0 |
| 20260830233044 | 75 | 250 | 5.0 | 10.0 | 0.00 | 0.04 | 0.04 | 77 | 1014.0 |
| 20260830232519 | 76 | 211 | 3.0 | 10.0 | 0.00 | 0.04 | 0.04 | 77 | 1014.0 |
| 20260830232019 | 76 | 214 | 3.0 | 9.0 | 0.00 | 0.04 | 0.04 | 77 | 1014.0 |
| 20260830231546 | 76 | 256 | 4.0 | 9.0 | 0.00 | 0.04 | 0.04 | 76 | 1014.1 |
| 20260830231019 | 76 | 245 | 2.0 | 10.0 | 0.00 | 0.04 | 0.04 | 76 | 1014.0 |
| 20260830230518 | 76 | 234 | 6.0 | 10.0 | 0.00 | 0.04 | 0.04 | 76 | 1014.1 |
| 20260830230042 | 76 | 234 | 6.0 | 10.0 | 0.00 | 0.04 | 0.04 | 76 | 1014.1 |
| 20260830225519 | 76 | 243 | 3.0 | 10.0 | 0.00 | 0.04 | 0.04 | 75 | 1014.0 |
| 20260830225022 | 76 | 200 | 3.0 | 13.0 | 0.00 | 0.04 | 0.04 | 75 | 1014.0 |
| 20260830224542 | 77 | 238 | 5.0 | 13.0 | 0.00 | 0.04 | 0.04 | 74 | 1013.8 |
| 20260830224021 | 77 | 172 | 3.0 | 9.0 | 0.00 | 0.04 | 0.04 | 75 | 1014.0 |
| 20260830223520 | 77 | 136 | 4.0 | 9.0 | 0.00 | 0.04 | 0.04 | 75 | 1013.8 |
| 20260830223041 | 77 | 238 | 6.0 | 9.0 | 0.00 | 0.04 | 0.04 | 74 | 1013.8 |
| 20260830222518 | 77 | 226 | 4.0 | 11.0 | 0.00 | 0.04 | 0.04 | 74 | 1013.7 |
| 20260830222027 | 77 | 272 | 2.0 | 11.0 | 0.00 | 0.04 | 0.04 | 74 | 1013.6 |
| 20260830221543 | 77 | 213 | 5.0 | 12.0 | 0.00 | 0.04 | 0.04 | 73 | 1013.6 |
| 20260830221018 | 78 | 202 | 5.0 | 12.0 | 0.00 | 0.04 | 0.04 | 73 | 1013.6 |
| 20260830220518 | 78 | 196 | 3.0 | 11.0 | 0.00 | 0.04 | 0.04 | 73 | 1013.6 |
| 20260830220042 | 78 | 251 | 5.0 | 12.0 | 0.00 | 0.04 | 0.04 | 72 | 1013.6 |
| 20260830215521 | 78 | 259 | 3.0 | 12.0 | 0.00 | 0.04 | 0.04 | 72 | 1013.6 |
| 20260830215020 | 78 | 207 | 6.0 | 12.0 | 0.00 | 0.04 | 0.04 | 72 | 1013.5 |
| 20260830214540 | 78 | 247 | 6.0 | 12.0 | 0.00 | 0.04 | 0.04 | 71 | 1013.4 |
| 20260830214016 | 78 | 223 | 5.0 | 12.0 | 0.00 | 0.04 | 0.04 | 70 | 1013.3 |
| 20260830213531 | 79 | 254 | 6.0 | 14.0 | 0.00 | 0.04 | 0.04 | 70 | 1013.3 |
| 20260830213040 | 79 | 213 | 5.0 | 14.0 | 0.00 | 0.04 | 0.04 | 70 | 1013.3 |
| 20260830212519 | 79 | 225 | 8.0 | 14.0 | 0.00 | 0.04 | 0.04 | 69 | 1013.3 |
| 20260830212025 | 80 | 243 | 5.0 | 14.0 | 0.00 | 0.04 | 0.04 | 68 | 1013.3 |
| 20260830211537 | 80 | 273 | 7.0 | 15.0 | 0.00 | 0.04 | 0.04 | 67 | 1013.5 |
| 20260830211023 | 80 | 232 | 6.0 | 16.0 | 0.00 | 0.04 | 0.04 | 65 | 1013.4 |
| 20260830210520 | 81 | 190 | 6.0 | 16.0 | 0.00 | 0.04 | 0.04 | 65 | 1013.3 |
| 20260830210042 | 81 | 207 | 5.0 | 15.0 | 0.00 | 0.04 | 0.04 | 66 | 1013.4 |
| 20260830205518 | 80 | 236 | 8.0 | 15.0 | 0.00 | 0.04 | 0.04 | 66 | 1013.3 |
| 20260830205022 | 81 | 226 | 5.0 | 14.0 | 0.00 | 0.04 | 0.04 | 65 | 1013.2 |
| 20260830204543 | 81 | 219 | 5.0 | 14.0 | 0.00 | 0.04 | 0.04 | 65 | 1013.2 |
| 20260830204021 | 81 | 187 | 4.0 | 16.0 | 0.00 | 0.04 | 0.04 | 65 | 1013.3 |
| 20260830203519 | 81 | 251 | 5.0 | 15.0 | 0.00 | 0.04 | 0.04 | 64 | 1013.4 |
| 20260830203041 | 81 | 265 | 9.0 | 15.0 | 0.00 | 0.04 | 0.04 | 64 | 1013.5 |
| 20260830202524 | 82 | 285 | 5.0 | 15.0 | 0.00 | 0.04 | 0.04 | 64 | 1013.4 |
| 20260830202021 | 82 | 258 | 7.0 | 15.0 | 0.00 | 0.04 | 0.04 | 64 | 1013.3 |
| 20260830201604 | 83 | 281 | 5.0 | 13.0 | 0.00 | 0.04 | 0.04 | 64 | 1013.3 |
| 20260830201021 | 82 | 249 | 4.0 | 20.0 | 0.00 | 0.04 | 0.04 | 63 | 1013.3 |
| 20260830200521 | 82 | 294 | 11.0 | 20.0 | 0.00 | 0.04 | 0.04 | 62 | 1013.5 |
| 20260830200044 | 82 | 252 | 9.0 | 21.0 | 0.00 | 0.04 | 0.04 | 62 | 1013.5 |
| 20260830195519 | 82 | 263 | 12.0 | 21.0 | 0.00 | 0.04 | 0.04 | 62 | 1013.5 |
| 20260830195021 | 82 | 240 | 11.0 | 21.0 | 0.00 | 0.04 | 0.04 | 61 | 1013.5 |
| 20260830194546 | 83 | 277 | 10.0 | 20.0 | 0.00 | 0.04 | 0.04 | 61 | 1013.6 |
| 20260830194019 | 83 | 253 | 8.0 | 20.0 | 0.00 | 0.04 | 0.04 | 62 | 1013.6 |
| 20260830193520 | 83 | 248 | 11.0 | 23.0 | 0.00 | 0.04 | 0.04 | 62 | 1013.6 |
| 20260830193042 | 83 | 188 | 10.0 | 23.0 | 0.00 | 0.04 | 0.04 | 62 | 1013.7 |
| 20260830192518 | 83 | 230 | 9.0 | 23.0 | 0.00 | 0.04 | 0.04 | 61 | 1013.7 |
| 20260830192021 | 83 | 214 | 10.0 | 27.0 | 0.00 | 0.04 | 0.04 | 60 | 1013.8 |
| 20260830191544 | 84 | 242 | 11.0 | 27.0 | 0.00 | 0.04 | 0.04 | 59 | 1013.8 |
| 20260830191026 | 84 | 255 | 10.0 | 24.0 | 0.00 | 0.04 | 0.04 | 60 | 1013.8 |
| 20260830190521 | 84 | 241 | 8.0 | 21.0 | 0.00 | 0.04 | 0.04 | 60 | 1013.8 |
| 20260830190046 | 83 | 292 | 11.0 | 21.0 | 0.00 | 0.04 | 0.04 | 61 | 1013.7 |
| 20260830185520 | 84 | 179 | 12.0 | 21.0 | 0.00 | 0.04 | 0.04 | 59 | 1013.8 |
| 20260830185019 | 84 | 165 | 10.0 | 19.0 | 0.00 | 0.04 | 0.04 | 59 | 1013.7 |
| 20260830184544 | 83 | 227 | 10.0 | 19.0 | 0.00 | 0.04 | 0.04 | 59 | 1013.5 |
| 20260830184019 | 84 | 317 | 8.0 | 23.0 | 0.00 | 0.04 | 0.04 | 59 | 1013.3 |
| 20260830183525 | 83 | 249 | 7.0 | 23.0 | 0.00 | 0.04 | 0.04 | 58 | 1013.1 |
| 20260830183039 | 84 | 245 | 7.0 | 19.0 | 0.00 | 0.04 | 0.04 | 58 | 1013.0 |
| 20260830182519 | 85 | 300 | 9.0 | 17.0 | 0.00 | 0.04 | 0.04 | 57 | 1012.9 |
| 20260830182018 | 85 | 260 | 9.0 | 16.0 | 0.00 | 0.04 | 0.04 | 56 | 1012.9 |
| 20260830181558 | 86 | 238 | 4.0 | 16.0 | 0.00 | 0.04 | 0.04 | 57 | 1012.8 |
| 20260830181021 | 85 | 208 | 6.0 | 14.0 | 0.00 | 0.04 | 0.04 | 58 | 1012.8 |
| 20260830180523 | 85 | 182 | 6.0 | 16.0 | 0.00 | 0.04 | 0.04 | 58 | 1012.9 |
| 20260830180039 | 84 | 144 | 8.0 | 16.0 | 0.00 | 0.04 | 0.04 | 58 | 1012.9 |
| 20260830175520 | 84 | 235 | 10.0 | 16.0 | 0.00 | 0.04 | 0.04 | 57 | 1012.8 |
| 20260830175024 | 85 | 221 | 5.0 | 15.0 | 0.00 | 0.04 | 0.04 | 57 | 1012.9 |
| 20260830174534 | 85 | 231 | 4.0 | 15.0 | 0.00 | 0.04 | 0.04 | 58 | 1012.9 |
| 20260830174020 | 84 | 180 | 8.0 | 15.0 | 0.00 | 0.04 | 0.04 | 58 | 1012.9 |
| 20260830173515 | 85 | 284 | 7.0 | 16.0 | 0.00 | 0.04 | 0.04 | 56 | 1013.1 |
| 20260830173039 | 84 | 290 | 7.0 | 18.0 | 0.00 | 0.04 | 0.04 | 58 | 1013.0 |
| 20260830172515 | 84 | 287 | 9.0 | 18.0 | 0.00 | 0.04 | 0.04 | 57 | 1013.0 |
| 20260830172019 | 84 | 197 | 7.0 | 15.0 | 0.00 | 0.04 | 0.04 | 59 | 1013.0 |
| 20260830171539 | 84 | 178 | 7.0 | 15.0 | 0.00 | 0.04 | 0.04 | 60 | 1013.1 |
| 20260830171022 | 84 | 212 | 7.0 | 14.0 | 0.00 | 0.04 | 0.04 | 60 | 1013.2 |
| 20260830170521 | 83 | 205 | 7.0 | 14.0 | 0.00 | 0.04 | 0.04 | 60 | 1013.2 |
| 20260830170037 | 84 | 204 | 6.0 | 13.0 | 0.00 | 0.04 | 0.04 | 59 | 1013.1 |
| 20260830165516 | 84 | 204 | 5.0 | 12.0 | 0.00 | 0.04 | 0.04 | 67 | 1013.0 |
| 20260830165019 | 83 | 171 | 6.0 | 17.0 | 0.00 | 0.04 | 0.04 | 67 | 1013.3 |
| 20260830164539 | 83 | 249 | 6.0 | 17.0 | 0.00 | 0.04 | 0.04 | 67 | 1013.3 |
| 20260830164020 | 82 | 196 | 8.0 | 17.0 | 0.00 | 0.04 | 0.04 | 67 | 1013.3 |
| 20260830163520 | 82 | 155 | 8.0 | 16.0 | 0.00 | 0.04 | 0.04 | 67 | 1013.4 |
| 20260830163036 | 83 | 238 | 7.0 | 16.0 | 0.00 | 0.04 | 0.04 | 67 | 1013.4 |
| 20260830162519 | 82 | 192 | 7.0 | 17.0 | 0.00 | 0.04 | 0.04 | 67 | 1013.5 |
| 20260830162017 | 82 | 206 | 7.0 | 17.0 | 0.00 | 0.04 | 0.04 | 67 | 1013.5 |
| 20260830161535 | 82 | 263 | 5.0 | 15.0 | 0.00 | 0.04 | 0.04 | 67 | 1013.5 |
| 20260830161019 | 82 | 253 | 6.0 | 15.0 | 0.00 | 0.04 | 0.04 | 67 | 1013.6 |
| 20260830160516 | 81 | 222 | 6.0 | 13.0 | 0.00 | 0.04 | 0.04 | 67 | 1013.7 |
| 20260830160039 | 81 | 270 | 6.0 | 13.0 | 0.00 | 0.04 | 0.04 | 67 | 1013.7 |
| 20260830155521 | 81 | 209 | 7.0 | 13.0 | 0.00 | 0.04 | 0.04 | 67 | 1013.7 |
| 20260830155019 | 81 | 167 | 3.0 | 10.0 | 0.00 | 0.04 | 0.04 | 67 | 1013.8 |
| 20260830154539 | 81 | 200 | 5.0 | 10.0 | 0.00 | 0.04 | 0.04 | 66 | 1013.8 |
| 20260830154021 | 80 | 211 | 2.0 | 7.0 | 0.00 | 0.04 | 0.04 | 69 | 1013.9 |
| 20260830153517 | 79 | 132 | 2.0 | 8.0 | 0.00 | 0.04 | 0.04 | 72 | 1013.7 |
| 20260830153045 | 79 | 175 | 2.0 | 8.0 | 0.00 | 0.04 | 0.04 | 73 | 1013.8 |
| 20260830152519 | 78 | 190 | 5.0 | 8.0 | 0.00 | 0.04 | 0.04 | 74 | 1013.8 |
| 20260830152016 | 78 | 169 | 4.0 | 9.0 | 0.00 | 0.04 | 0.04 | 73 | 1014.1 |
| 20260830151539 | 78 | 179 | 4.0 | 10.0 | 0.00 | 0.04 | 0.04 | 74 | 1014.0 |
| 20260830151026 | 77 | 172 | 4.0 | 12.0 | 0.00 | 0.04 | 0.04 | 73 | 1014.1 |
| 20260830150522 | 77 | 182 | 4.0 | 12.0 | 0.00 | 0.04 | 0.04 | 74 | 1014.0 |
| 20260830150047 | 77 | 143 | 6.0 | 10.0 | 0.00 | 0.04 | 0.04 | 76 | 1013.9 |
| 20260830145520 | 76 | 157 | 5.0 | 11.0 | 0.00 | 0.04 | 0.04 | 75 | 1014.0 |
| 20260830145019 | 76 | 158 | 6.0 | 10.0 | 0.00 | 0.04 | 0.04 | 76 | 1014.0 |
| 20260830144543 | 75 | 211 | 5.0 | 10.0 | 0.00 | 0.04 | 0.04 | 76 | 1014.0 |
| 20260830144020 | 76 | 146 | 5.0 | 10.0 | 0.00 | 0.04 | 0.04 | 77 | 1014.0 |
| 20260830143520 | 75 | 196 | 3.0 | 9.0 | 0.00 | 0.04 | 0.04 | 79 | 1014.0 |
| 20260830143045 | 74 | 161 | 4.0 | 8.0 | 0.00 | 0.04 | 0.04 | 78 | 1013.9 |